Time,TemperatureF,DewpointF,PressureIn,WindDirection,WindDirectionDegrees,WindSpeedMPH,WindSpeedGustMPH,Humidity,HourlyPrecipIn,Conditions,Clouds,dailyrainin,SolarRadiationWatts/m^2,SoftwareType,DateUTC
2013-05-14 00:01:00,85.0,43.0,-100.00,SW,230,0.0,4.0,23,0.00,,,0.00,1.000000,,2013-05-14 07:01:00,
2013-05-14 00:11:00,85.0,43.0,-100.00,SW,230,0.0,4.0,23,0.00,,,0.00,1.000000,,2013-05-14 07:11:00,
2013-05-14 00:42:00,84.0,42.0,-100.00,North,0,4.0,7.0,23,0.00,,,0.00,1.000000,,2013-05-14 07:42:00,
2013-05-14 00:52:00,84.0,42.0,-100.00,North,0,4.0,7.0,23,0.00,,,0.00,1.000000,,2013-05-14 07:52:00,
2013-05-14 01:02:00,84.0,42.0,-100.00,North,0,4.0,7.0,23,0.00,,,0.00,1.000000,,2013-05-14 08:02:00,
2013-05-14 01:11:00,84.0,42.0,-100.00,North,0,4.0,7.0,23,0.00,,,0.00,1.000000,,2013-05-14 08:11:00,
2013-05-14 01:42:00,85.0,39.0,-100.00,NNE,25,0.0,5.0,20,0.00,,,0.00,1.000000,,2013-05-14 08:42:00,
2013-05-14 01:52:00,85.0,39.0,-100.00,NNE,25,0.0,5.0,20,0.00,,,0.00,1.000000,,2013-05-14 08:52:00,
2013-05-14 02:01:00,85.0,39.0,-100.00,NNE,25,0.0,5.0,20,0.00,,,0.00,1.000000,,2013-05-14 09:01:00,
2013-05-14 02:11:00,85.0,39.0,-100.00,NNE,25,0.0,5.0,20,0.00,,,0.00,1.000000,,2013-05-14 09:11:00,
2013-05-14 02:44:00,82.0,39.0,-100.00,ESE,116,5.0,5.0,22,0.00,,,0.00,1.000000,,2013-05-14 09:44:00,
2013-05-14 02:54:00,82.0,39.0,-100.00,ESE,116,5.0,5.0,22,0.00,,,0.00,1.000000,,2013-05-14 09:54:00,
2013-05-14 03:04:00,82.0,39.0,-100.00,ESE,116,5.0,5.0,22,0.00,,,0.00,1.000000,,2013-05-14 10:04:00,
2013-05-14 03:14:00,82.0,39.0,-100.00,ESE,116,5.0,5.0,22,0.00,,,0.00,1.000000,,2013-05-14 10:14:00,
2013-05-14 03:33:00,79.0,39.0,-100.00,SE,124,9.0,12.0,24,0.00,,,0.00,1.000000,,2013-05-14 10:33:00,
2013-05-14 03:42:00,79.0,39.0,-100.00,SE,124,9.0,12.0,24,0.00,,,0.00,1.000000,,2013-05-14 10:42:00,
2013-05-14 03:52:00,79.0,39.0,-100.00,SE,124,9.0,12.0,24,0.00,,,0.00,1.000000,,2013-05-14 10:52:00,
2013-05-14 04:02:00,79.0,39.0,-100.00,SE,124,9.0,12.0,24,0.00,,,0.00,1.000000,,2013-05-14 11:02:00,
2013-05-14 04:11:00,79.0,39.0,-100.00,SE,124,9.0,12.0,24,0.00,,,0.00,1.000000,,2013-05-14 11:11:00,
2013-05-14 04:32:00,76.0,52.0,-100.00,SE,145,14.0,18.0,44,0.00,,,0.00,1.000000,,2013-05-14 11:32:00,
2013-05-14 05:42:00,77.0,47.0,-100.00,SSE,148,15.0,21.0,35,0.00,,,0.00,1.000000,,2013-05-14 12:42:00,
2013-05-14 05:52:00,77.0,47.0,-100.00,SSE,148,15.0,21.0,35,0.00,,,0.00,1.000000,,2013-05-14 12:52:00,
2013-05-14 06:01:00,77.0,47.0,-100.00,SSE,148,15.0,21.0,35,0.00,,,0.00,1.000000,,2013-05-14 13:01:00,
2013-05-14 06:11:00,77.0,47.0,-100.00,SSE,148,15.0,21.0,35,0.00,,,0.00,1.000000,,2013-05-14 13:11:00,
2013-05-14 06:42:00,78.0,46.0,-100.00,SE,146,15.0,21.0,32,0.00,,,-99.99,17.000000,,2013-05-14 13:42:00,
2013-05-14 06:52:00,78.0,46.0,-100.00,SE,146,15.0,21.0,32,0.00,,,-99.99,17.000000,,2013-05-14 13:52:00,
2013-05-14 07:01:00,78.0,46.0,-100.00,SE,146,15.0,21.0,32,0.00,,,-99.99,17.000000,,2013-05-14 14:01:00,
2013-05-14 07:11:00,78.0,46.0,-100.00,SE,146,15.0,21.0,32,0.00,,,-99.99,17.000000,,2013-05-14 14:11:00,
2013-05-14 07:32:00,80.0,46.0,-100.00,SE,144,13.0,21.0,30,0.00,,,0.00,158.000000,,2013-05-14 14:32:00,
2013-05-14 07:42:00,80.0,46.0,-100.00,SE,144,13.0,21.0,30,0.00,,,0.00,158.000000,,2013-05-14 14:42:00,
2013-05-14 07:52:00,80.0,46.0,-100.00,SE,144,13.0,21.0,30,0.00,,,0.00,158.000000,,2013-05-14 14:52:00,
2013-05-14 08:01:00,80.0,46.0,-100.00,SE,144,13.0,21.0,30,0.00,,,0.00,158.000000,,2013-05-14 15:01:00,
2013-05-14 08:11:00,80.0,46.0,-100.00,SE,144,13.0,21.0,30,0.00,,,0.00,158.000000,,2013-05-14 15:11:00,
2013-05-14 08:43:00,85.0,43.0,-100.00,SSE,150,16.0,24.0,23,0.00,,,0.00,365.000000,,2013-05-14 15:43:00,
2013-05-14 08:53:00,85.0,43.0,-100.00,SSE,150,16.0,24.0,23,0.00,,,0.00,365.000000,,2013-05-14 15:53:00,
2013-05-14 09:02:00,85.0,43.0,-100.00,SSE,150,16.0,24.0,23,0.00,,,0.00,365.000000,,2013-05-14 16:02:00,
2013-05-14 09:12:00,85.0,43.0,-100.00,SSE,150,16.0,24.0,23,0.00,,,0.00,365.000000,,2013-05-14 16:12:00,
2013-05-14 09:44:00,89.0,43.0,-100.00,South,173,14.0,21.0,20,0.00,,,0.00,575.000000,,2013-05-14 16:44:00,
2013-05-14 09:54:00,89.0,43.0,-100.00,South,173,14.0,21.0,20,0.00,,,0.00,575.000000,,2013-05-14 16:54:00,
2013-05-14 10:03:00,89.0,43.0,-100.00,South,173,14.0,21.0,20,0.00,,,0.00,575.000000,,2013-05-14 17:03:00,
2013-05-14 10:13:00,89.0,43.0,-100.00,South,173,14.0,21.0,20,0.00,,,0.00,575.000000,,2013-05-14 17:13:00,
2013-05-14 10:43:00,92.0,41.0,-100.00,South,190,11.0,18.0,17,0.00,,,0.00,773.000000,,2013-05-14 17:43:00,
2013-05-14 10:52:00,92.0,41.0,-100.00,South,190,11.0,18.0,17,0.00,,,0.00,773.000000,,2013-05-14 17:52:00,
2013-05-14 11:02:00,92.0,41.0,-100.00,South,190,11.0,18.0,17,0.00,,,0.00,773.000000,,2013-05-14 18:02:00,
2013-05-14 11:12:00,92.0,41.0,-100.00,South,190,11.0,18.0,17,0.00,,,0.00,773.000000,,2013-05-14 18:12:00,
2013-05-14 11:42:00,96.0,43.0,-100.00,SSW,212,11.0,16.0,16,0.00,,,0.00,916.000000,,2013-05-14 18:42:00,
2013-05-14 11:52:00,96.0,43.0,-100.00,SSW,212,11.0,16.0,16,0.00,,,0.00,916.000000,,2013-05-14 18:52:00,
2013-05-14 12:01:00,96.0,43.0,-100.00,SSW,212,11.0,16.0,16,0.00,,,0.00,916.000000,,2013-05-14 19:01:00,
2013-05-14 12:11:00,96.0,43.0,-100.00,SSW,212,11.0,16.0,16,0.00,,,0.00,916.000000,,2013-05-14 19:11:00,
2013-05-14 12:42:00,99.0,47.0,-100.00,SW,230,9.0,17.0,17,0.00,,,-99.99,1005.000000,,2013-05-14 19:42:00,
2013-05-14 12:52:00,99.0,47.0,-100.00,SW,230,9.0,17.0,17,0.00,,,-99.99,1005.000000,,2013-05-14 19:52:00,
2013-05-14 13:02:00,99.0,47.0,-100.00,SW,230,9.0,17.0,17,0.00,,,-99.99,1005.000000,,2013-05-14 20:02:00,
2013-05-14 13:11:00,99.0,47.0,-100.00,SW,230,9.0,17.0,17,0.00,,,-99.99,1005.000000,,2013-05-14 20:11:00,
2013-05-14 13:44:00,100.0,42.0,-100.00,SW,226,8.0,14.0,14,0.00,,,0.00,1027.000000,,2013-05-14 20:44:00,
2013-05-14 13:52:00,100.0,42.0,-100.00,SW,226,8.0,14.0,14,0.00,,,0.00,1027.000000,,2013-05-14 20:52:00,
2013-05-14 14:03:00,100.0,42.0,-100.00,SW,226,8.0,14.0,14,0.00,,,0.00,1027.000000,,2013-05-14 21:03:00,
2013-05-14 14:12:00,100.0,42.0,-100.00,SW,226,8.0,14.0,14,0.00,,,0.00,1027.000000,,2013-05-14 21:12:00,
2013-05-14 14:43:00,100.0,49.0,-100.00,West,274,9.0,12.0,18,0.00,,,0.00,988.000000,,2013-05-14 21:43:00,
2013-05-14 14:53:00,100.0,49.0,-100.00,West,274,9.0,12.0,18,0.00,,,0.00,988.000000,,2013-05-14 21:53:00,
2013-05-14 15:03:00,100.0,49.0,-100.00,West,274,9.0,12.0,18,0.00,,,0.00,988.000000,,2013-05-14 22:03:00,
2013-05-14 15:13:00,100.0,49.0,-100.00,West,274,9.0,12.0,18,0.00,,,0.00,988.000000,,2013-05-14 22:13:00,
2013-05-14 15:45:00,102.0,47.0,-100.00,West,276,8.0,11.0,16,0.00,,,0.00,883.000000,,2013-05-14 22:45:00,
2013-05-14 15:54:00,102.0,47.0,-100.00,West,276,8.0,11.0,16,0.00,,,0.00,883.000000,,2013-05-14 22:54:00,
2013-05-14 16:03:00,102.0,47.0,-100.00,West,276,8.0,11.0,16,0.00,,,0.00,883.000000,,2013-05-14 23:03:00,
2013-05-14 16:12:00,102.0,47.0,-100.00,West,276,8.0,11.0,16,0.00,,,0.00,883.000000,,2013-05-14 23:12:00,
2013-05-14 16:44:00,103.0,48.0,-100.00,WSW,254,6.0,9.0,16,0.00,,,0.00,720.000000,,2013-05-14 23:44:00,
2013-05-14 16:52:00,103.0,48.0,-100.00,WSW,254,6.0,9.0,16,0.00,,,0.00,720.000000,,2013-05-14 23:52:00,
2013-05-14 17:01:00,103.0,48.0,-100.00,WSW,254,6.0,9.0,16,0.00,,,0.00,720.000000,,2013-05-15 00:01:00,
2013-05-14 17:11:00,103.0,48.0,-100.00,WSW,254,6.0,9.0,16,0.00,,,0.00,720.000000,,2013-05-15 00:11:00,
2013-05-14 17:42:00,103.0,41.0,-100.00,SW,235,6.0,10.0,12,0.00,,,0.00,522.000000,,2013-05-15 00:42:00,
2013-05-14 17:52:00,103.0,41.0,-100.00,SW,235,6.0,10.0,12,0.00,,,0.00,522.000000,,2013-05-15 00:52:00,
2013-05-14 18:01:00,103.0,41.0,-100.00,SW,235,6.0,10.0,12,0.00,,,0.00,522.000000,,2013-05-15 01:01:00,
2013-05-14 18:11:00,103.0,41.0,-100.00,SW,235,6.0,10.0,12,0.00,,,0.00,522.000000,,2013-05-15 01:11:00,
2013-05-14 18:42:00,102.0,40.0,-100.00,South,189,9.0,14.0,12,0.00,,,0.00,302.000000,,2013-05-15 01:42:00,
2013-05-14 18:52:00,102.0,40.0,-100.00,South,189,9.0,14.0,12,0.00,,,0.00,302.000000,,2013-05-15 01:52:00,
2013-05-14 19:01:00,102.0,40.0,-100.00,South,189,9.0,14.0,12,0.00,,,0.00,302.000000,,2013-05-15 02:01:00,
2013-05-14 19:11:00,102.0,40.0,-100.00,South,189,9.0,14.0,12,0.00,,,0.00,302.000000,,2013-05-15 02:11:00,
2013-05-14 19:32:00,95.0,43.0,-100.00,SSW,213,12.0,18.0,17,0.00,,,0.00,98.000000,,2013-05-15 02:32:00,
2013-05-14 19:42:00,95.0,43.0,-100.00,SSW,213,12.0,18.0,17,0.00,,,0.00,98.000000,,2013-05-15 02:42:00,
2013-05-14 19:52:00,95.0,43.0,-100.00,SSW,213,12.0,18.0,17,0.00,,,0.00,98.000000,,2013-05-15 02:52:00,
2013-05-14 20:01:00,95.0,43.0,-100.00,SSW,213,12.0,18.0,17,0.00,,,0.00,98.000000,,2013-05-15 03:01:00,
2013-05-14 20:12:00,95.0,43.0,-100.00,SSW,213,12.0,18.0,17,0.00,,,0.00,98.000000,,2013-05-15 03:12:00,
2013-05-14 20:44:00,85.0,53.0,-100.00,SW,218,5.0,18.0,33,0.00,,,0.00,6.000000,,2013-05-15 03:44:00,
2013-05-14 20:54:00,85.0,53.0,-100.00,SW,218,5.0,18.0,33,0.00,,,0.00,6.000000,,2013-05-15 03:54:00,
2013-05-14 21:03:00,85.0,53.0,-100.00,SW,218,5.0,18.0,33,0.00,,,0.00,6.000000,,2013-05-15 04:03:00,
2013-05-14 21:33:00,82.0,52.0,-100.00,WSW,238,2.0,7.0,35,0.00,,,0.00,1.000000,,2013-05-15 04:33:00,
2013-05-14 21:43:00,82.0,52.0,-100.00,WSW,238,2.0,7.0,35,0.00,,,0.00,1.000000,,2013-05-15 04:43:00,
2013-05-14 21:52:00,82.0,52.0,-100.00,WSW,238,2.0,7.0,35,0.00,,,0.00,1.000000,,2013-05-15 04:52:00,
2013-05-14 22:02:00,82.0,52.0,-100.00,WSW,238,2.0,7.0,35,0.00,,,0.00,1.000000,,2013-05-15 05:02:00,
2013-05-14 22:11:00,82.0,52.0,-100.00,WSW,238,2.0,7.0,35,0.00,,,0.00,1.000000,,2013-05-15 05:11:00,
2013-05-14 22:42:00,80.0,52.0,-100.00,NW,313,3.0,5.0,38,0.00,,,0.00,1.000000,,2013-05-15 05:42:00,
2013-05-14 22:52:00,80.0,52.0,-100.00,NW,313,3.0,5.0,38,0.00,,,0.00,1.000000,,2013-05-15 05:52:00,
2013-05-14 23:02:00,80.0,52.0,-100.00,NW,313,3.0,5.0,38,0.00,,,0.00,1.000000,,2013-05-15 06:02:00,
2013-05-14 23:11:00,80.0,52.0,-100.00,NW,313,3.0,5.0,38,0.00,,,0.00,1.000000,,2013-05-15 06:11:00,
2013-05-14 23:42:00,80.0,47.0,-100.00,SW,219,0.0,7.0,32,0.00,,,0.00,1.000000,,2013-05-15 06:42:00,
2013-05-14 23:52:00,80.0,47.0,-100.00,SW,219,0.0,7.0,32,0.00,,,0.00,1.000000,,2013-05-15 06:52:00,